Location: Be Tobo
(6.6442°N, 10.6239°W)
Time: 00:58:31
(UTC+00:00)

CZ-4 R/B - Pass Details

Date: 18 September 2020
Orbit: 530 x 600 km, 97.7° (Epoch: 20 October)

Event Time Altitude Azimuth Distance (km) Brightness Sun altitude
Rises 20:09:11 0° 187° (S) 2,811 5.0 -22.9°
Reaches altitude 10° 20:11:31 10° 198° (SSW) 1,918 4.2 -23.4°
Maximum altitude 20:15:11 30° 259° (W) 1,076 3.4 -24.3°
Drops below altitude 10° 20:18:52 10° 321° (NW) 1,932 4.6 -25.3°
Sets 20:21:15 0° 332° (NNW) 2,834 5.4 -25.8°
